Wind_Speed
8 7 6 8 9 10 10 10 13 16 16 17 19 20 20 20 20 21 21 22 23 25 27 29 32 34 36 38 39 39 40 40 39 40 40 39 38 38 38 37 36 35 34 34
2 5 7 7 6 7 7 8 11 13 13 14 15 15 16 17 18 19 21 22 24 26 28 30 32 34 36 37 37 37 37 38 39 40 41 41 41 41 40 39 38 37 36 34
4 8 7 6 6 6 7 7 10 11 10 10 11 12 13 14 16 17 19 21 24 26 28 29 30 31 32 34 35 36 38 39 40 41 41 42 42 43 43 42 41 40 38 36
5 7 6 6 7 6 7 8 8 9 8 10 9 12 13 14 16 18 20 22 24 26 27 29 30 32 34 35 37 38 40 42 43 44 44 44 45 45 45 44 43 42 40 38
5 6 6 7 7 6 7 7 8 8 9 10 10 10 17 16 18 20 22 23 25 27 29 31 32 34 36 37 39 41 42 44 45 46 46 47 47 47 47 47 46 44 43 41
4 5 5 6 6 7 7 7 8 9 10 10 13 12 18 18 20 22 24 25 27 28 30 32 33 35 37 38 40 42 43 44 46 47 48 48 49 49 49 49 49 47 46 44
4 5 4 4 6 6 6 7 9 10 10 12 17 15 18 19 20 22 25 26 27 29 31 33 34 36 37 39 40 42 43 44 46 46 47 47 47 47 47 47 48 48 47 47
4 7 6 5 6 7 8 8 9 10 10 14 18 16 17 18 20 22 24 26 28 30 32 34 36 37 38 39 40 42 42 43 43 44 45 45 45 44 44 44 44 45 46 47
4 6 6 6 7 8 9 9 11 11 12 12 15 17 16 18 21 23 25 27 29 31 34 36 37 38 39 40 41 41 41 41 41 42 42 42 41 41 41 42 42 43 44 46
5 6 7 7 7 7 8 9 9 9 10 10 13 18 19 19 22 24 26 28 31 33 36 37 38 39 40 41 41 41 41 40 40 40 39 40 40 41 42 43 44 46 46 47
5 6 7 7 6 7 7 8 8 9 9 10 12 18 19 21 23 26 28 31 33 36 38 39 40 41 41 41 41 41 41 41 40 40 40 40 42 44 45 46 48 49 50 50
5 6 7 7 7 7 7 8 8 10 12 13 15 19 19 22 25 27 30 33 35 38 39 41 42 43 42 42 42 42 42 42 41 42 42 43 45 47 48 50 51 52 53 54
6 6 7 7 8 8 9 9 10 11 13 14 16 20 21 23 26 29 32 35 37 39 41 42 43 44 43 43 43 43 43 43 43 43 45 46 48 50 52 53 55 56 57 57
7 6 5 5 8 11 11 11 12 13 15 17 18 20 24 26 29 32 34 37 39 41 42 43 44 45 44 43 43 43 43 43 44 45 47 49 50 52 53 55 56 57 57 57
6 6 7 8 10 12 13 13 14 15 16 18 20 22 25 28 31 34 36 38 41 42 44 45 46 45 44 44 44 43 43 43 44 46 48 49 51 53 54 55 55 56 56 56
8 8 10 11 13 15 15 15 16 17 18 19 22 24 27 29 32 35 37 40 42 44 45 46 46 45 44 44 43 42 43 43 45 46 48 50 52 52 53 54 54 52 51 50
10 12 13 14 16 16 17 16 17 19 20 22 24 26 29 30 34 37 39 41 44 45 46 46 46 46 45 44 43 43 43 44 46 48 50 51 52 51 52 51 50 48 46 45
13 14 15 16 17 18 17 17 18 19 21 23 25 28 29 31 35 37 40 42 44 46 47 47 47 46 45 44 43 43 44 45 46 48 50 51 50 49 49 49 47 44 41 38
15 16 17 18 19 18 17 17 18 20 21 24 26 28 30 32 36 39 41 44 47 48 49 49 48 47 46 44 44 44 44 45 46 48 49 50 49 48 47 46 43 39 36 32
16 17 18 19 19 18 19 18 20 22 23 25 27 29 31 33 36 39 43 46 48 50 50 50 49 48 46 44 44 44 44 45 46 48 49 49 47 46 45 43 40 37 32 28
17 17 17 19 19 20 20 21 22 24 26 27 29 31 33 35 38 41 44 47 49 50 50 50 49 48 47 44 43 44 44 45 46 47 47 47 45 44 44 41 38 35 29 24
18 18 18 18 19 21 21 22 23 24 26 28 30 32 34 37 39 42 45 48 50 50 50 49 48 48 46 44 43 44 44 45 46 46 46 45 43 43 41 40 37 33 28 22
18 19 20 20 21 22 22 23 24 25 27 28 30 32 35 38 41 44 46 49 50 51 50 49 48 47 46 44 43 43 44 44 45 45 44 43 42 41 39 37 35 32 26 20
20 19 20 21 21 22 23 24 25 26 27 29 31 33 36 39 42 45 47 49 50 50 49 48 47 46 45 43 43 42 43 43 44 44 43 42 40 39 37 35 33 30 26 20
21 20 20 21 21 22 23 24 25 26 28 30 32 34 37 40 44 46 49 50 50 50 49 48 47 46 44 42 42 41 41 42 43 43 42 41 39 38 35 33 31 28 25 20
22 21 21 21 22 22 23 24 26 27 29 31 33 36 39 42 45 48 49 49 50 50 48 48 47 45 43 42 41 40 40 41 42 42 41 40 38 36 34 32 29 26 24 20
Wind_Direction
263 257 246 250 254 253 263 266 271 276 279 278 278 276 275 276 276 276 277 277 279 280 281 282 283 285 286 288 290 290 290 289 289 289 289 289 288 288 289 291 293 292 290 288
269 250 255 262 267 272 277 279 283 287 286 285 283 281 279 278 278 278 280 282 284 285 286 287 287 288 289 290 291 291 293 291 290 289 288 287 287 287 287 288 288 288 288 287
210 244 252 258 263 270 279 277 283 293 296 293 293 293 288 288 289 289 291 291 292 292 294 294 294 293 292 293 293 292 292 292 291 291 289 288 287 286 286 286 285 285 286 285
257 256 253 254 256 257 272 282 288 299 308 308 308 302 300 302 301 299 298 297 298 299 299 299 298 297 296 296 295 294 293 293 292 291 290 288 287 286 285 284 283 282 281 279
264 259 254 246 249 257 259 282 293 301 305 306 309 302 299 305 304 303 301 301 301 302 302 302 301 300 298 298 297 296 296 295 294 293 291 290 288 287 286 284 283 281 278 274
277 275 268 262 264 269 276 288 302 311 316 307 302 304 297 306 304 303 302 303 303 303 303 303 302 301 300 299 298 297 296 295 293 292 290 289 288 286 285 284 282 280 276 272
305 300 298 284 279 285 285 298 307 309 307 292 298 300 298 304 304 305 307 308 307 307 306 306 305 304 303 301 300 298 297 295 293 292 291 289 288 286 285 283 281 278 275 271
298 293 305 294 283 287 288 283 278 277 283 289 301 304 308 307 309 311 312 312 312 312 311 310 308 307 305 304 302 301 299 298 295 294 292 291 290 288 286 284 281 279 276 272
288 294 305 299 291 287 287 281 282 289 296 302 301 309 311 314 316 318 318 318 318 317 316 314 313 311 310 308 307 306 304 302 299 297 294 292 290 288 286 284 282 279 276 272
307 305 307 307 300 295 292 297 301 302 302 305 307 314 322 323 323 324 324 324 323 322 321 320 318 316 314 313 312 310 308 306 303 300 297 294 291 289 288 286 284 281 277 273
316 313 313 313 312 311 312 313 316 318 320 321 316 310 328 327 328 328 329 328 327 326 325 324 322 320 318 317 316 314 312 309 307 304 301 297 295 293 291 289 286 283 279 274
323 324 319 319 322 326 328 330 333 334 331 330 328 322 332 331 332 332 332 331 329 329 328 327 325 323 321 320 318 316 314 311 308 306 303 301 298 296 294 292 289 285 280 275
323 326 332 330 333 337 338 340 339 335 332 332 330 325 333 333 332 333 334 333 331 331 330 329 327 325 323 321 319 317 314 312 310 309 307 305 302 300 298 295 292 288 282 276
322 326 334 319 323 332 336 336 334 332 331 329 329 328 330 333 334 335 335 334 333 332 331 331 329 327 325 323 321 319 316 315 313 312 311 309 307 305 302 299 296 291 286 279
324 331 333 330 327 328 329 329 328 327 326 326 327 329 331 333 333 335 335 335 335 334 333 332 331 329 327 325 322 320 319 318 317 316 315 313 311 309 306 303 300 295 290 283
326 332 332 328 326 323 324 323 323 322 323 325 327 329 331 332 332 334 335 336 336 336 335 333 332 330 329 326 324 322 322 321 321 321 319 318 316 313 310 307 304 299 293 286
326 327 327 324 323 321 319 319 320 320 322 325 327 329 331 332 332 335 336 337 337 336 336 334 333 332 331 328 326 326 325 324 324 325 323 322 321 318 315 313 310 305 298 289
323 323 322 320 319 319 316 316 316 318 321 325 327 328 330 331 332 335 336 337 337 337 337 335 334 334 333 331 330 329 328 327 327 328 327 326 325 324 321 319 316 311 305 294
318 319 318 319 318 316 312 314 317 320 324 325 326 328 329 331 332 335 337 337 337 338 338 336 335 336 335 333 332 332 331 330 330 331 330 330 329 329 328 327 324 320 313 303
312 314 315 316 316 314 315 318 320 322 324 327 328 329 331 333 334 336 337 337 337 337 337 337 336 336 336 335 334 334 333 333 334 334 333 333 333 333 334 334 332 329 322 313
307 309 311 312 314 313 315 319 321 324 326 329 330 332 333 334 336 336 337 337 337 337 337 337 336 336 337 336 336 336 336 336 337 337 337 337 337 337 338 338 338 337 333 325
305 307 308 310 311 310 315 318 321 323 326 328 331 332 333 334 335 336 336 337 337 338 338 337 337 337 337 337 338 338 339 339 340 340 341 341 341 341 342 343 344 343 342 337
302 304 306 308 308 309 314 317 320 323 326 328 330 332 333 334 334 335 336 337 338 338 338 338 337 337 338 338 339 340 341 341 342 343 344 344 345 345 345 346 348 349 348 345
304 306 306 306 306 308 312 316 320 323 326 328 329 331 332 333 334 335 336 338 338 338 338 338 338 338 339 340 340 341 342 344 345 345 346 346 347 347 347 348 349 352 353 351
305 309 308 307 306 307 311 315 319 322 324 326 328 330 331 332 333 335 337 338 339 339 339 339 339 339 340 341 341 341 343 345 347 347 347 348 348 348 348 349 350 352 355 357
305 308 308 308 307 309 312 315 319 321 324 326 327 329 330 331 333 335 337 339 340 340 340 339 339 339 340 342 342 342 344 346 348 349 350 350 350 350 350 350 351 352 354 355
Height
5871 5873 5875 5874 5874 5875 5875 5876 5875 5874 5873 5872 5871 5871 5870 5869 5869 5868 5867 5866 5865 5864 5862 5860 5858 5856 5853 5850 5846 5843 5839 5836 5833 5830 5827 5824 5822 5819 5817 5814 5811 5807 5804 5801
5871 5872 5871 5871 5871 5872 5872 5873 5872 5871 5870 5869 5868 5867 5866 5865 5864 5863 5862 5861 5859 5858 5856 5853 5850 5848 5844 5841 5837 5834 5830 5826 5823 5820 5817 5814 5811 5809 5806 5804 5802 5799 5796 5793
5871 5870 5869 5869 5870 5870 5871 5871 5870 5868 5867 5866 5865 5863 5862 5861 5860 5858 5857 5855 5853 5851 5849 5846 5843 5839 5836 5832 5829 5825 5821 5817 5813 5809 5806 5803 5801 5798 5796 5793 5791 5789 5786 5783
5868 5867 5867 5868 5868 5868 5869 5868 5867 5866 5865 5864 5863 5863 5859 5857 5856 5854 5852 5850 5848 5845 5842 5839 5835 5831 5828 5824 5820 5816 5811 5807 5803 5799 5795 5792 5789 5786 5784 5781 5779 5778 5776 5774
5867 5866 5866 5866 5866 5866 5866 5865 5865 5864 5863 5862 5861 5861 5857 5854 5852 5850 5847 5845 5842 5839 5836 5832 5828 5824 5819 5815 5810 5806 5801 5796 5792 5787 5783 5780 5776 5773 5771 5768 5767 5766 5764 5763
5865 5865 5864 5864 5864 5864 5864 5864 5863 5862 5862 5861 5859 5858 5855 5851 5849 5846 5843 5840 5837 5833 5829 5825 5820 5816 5811 5806 5801 5796 5791 5786 5781 5776 5772 5768 5764 5761 5758 5755 5753 5752 5752 5751
5866 5865 5864 5864 5864 5863 5863 5864 5864 5862 5861 5860 5856 5854 5852 5848 5845 5842 5838 5835 5831 5827 5822 5818 5813 5808 5803 5797 5792 5787 5781 5776 5770 5765 5760 5755 5751 5748 5745 5742 5739 5738 5737 5737
5866 5866 5864 5863 5863 5862 5861 5862 5863 5862 5860 5858 5852 5850 5847 5844 5840 5837 5834 5830 5825 5821 5816 5810 5805 5800 5794 5788 5782 5776 5771 5765 5759 5753 5748 5743 5738 5734 5731 5728 5726 5723 5722 5721
5865 5864 5863 5861 5861 5860 5859 5858 5857 5857 5855 5853 5851 5846 5843 5839 5836 5833 5828 5824 5819 5814 5809 5803 5797 5791 5785 5778 5772 5765 5759 5753 5747 5741 5736 5731 5726 5722 5719 5715 5712 5710 5708 5706
5864 5863 5862 5860 5859 5858 5857 5855 5854 5853 5852 5851 5848 5843 5840 5835 5832 5827 5823 5818 5813 5807 5801 5794 5788 5781 5775 5768 5761 5754 5748 5741 5735 5730 5724 5719 5714 5710 5706 5702 5699 5696 5693 5691
5862 5862 5860 5858 5857 5856 5855 5853 5851 5850 5848 5846 5844 5843 5836 5831 5827 5822 5817 5812 5806 5800 5793 5786 5779 5771 5764 5757 5750 5743 5736 5730 5724 5718 5712 5707 5702 5696 5691 5687 5683 5679 5677 5674
5861 5860 5858 5857 5855 5853 5852 5851 5849 5847 5845 5842 5840 5839 5832 5827 5822 5817 5812 5806 5799 5792 5785 5777 5769 5762 5754 5747 5739 5732 5725 5718 5712 5706 5700 5694 5688 5681 5675 5670 5665 5661 5658 5655
5860 5859 5857 5856 5855 5853 5850 5848 5846 5844 5842 5839 5836 5835 5827 5823 5817 5812 5806 5799 5792 5785 5777 5769 5761 5753 5745 5737 5729 5722 5714 5707 5700 5694 5687 5680 5672 5665 5658 5651 5645 5640 5636 5633
5858 5857 5857 5856 5853 5850 5848 5846 5843 5841 5838 5835 5832 5828 5823 5817 5812 5806 5800 5793 5786 5778 5769 5761 5753 5744 5736 5728 5719 5711 5704 5696 5689 5681 5673 5665 5656 5648 5640 5631 5624 5617 5612 5608
5856 5855 5853 5852 5850 5847 5845 5843 5840 5838 5835 5831 5827 5822 5817 5812 5806 5800 5794 5787 5779 5771 5762 5753 5744 5736 5727 5719 5710 5702 5694 5686 5677 5669 5660 5650 5641 5631 5622 5612 5603 5595 5588 5583
5854 5853 5851 5849 5847 5845 5842 5840 5837 5834 5830 5827 5822 5818 5813 5807 5801 5795 5788 5781 5773 5764 5755 5746 5737 5728 5719 5710 5701 5693 5684 5675 5666 5657 5647 5636 5626 5615 5604 5593 5583 5574 5566 5560
5852 5850 5849 5847 5844 5842 5840 5837 5833 5830 5826 5822 5818 5814 5807 5802 5796 5789 5782 5775 5766 5757 5748 5739 5729 5720 5711 5701 5692 5683 5674 5665 5655 5645 5634 5623 5612 5600 5588 5576 5565 5555 5547 5540
5849 5847 5845 5844 5842 5839 5838 5833 5830 5827 5822 5818 5813 5808 5803 5797 5791 5784 5777 5768 5760 5751 5742 5732 5722 5712 5703 5693 5683 5673 5664 5654 5644 5634 5622 5611 5599 5587 5574 5562 5550 5539 5530 5523
5846 5844 5842 5840 5838 5836 5833 5830 5826 5822 5819 5814 5809 5804 5798 5792 5785 5778 5771 5762 5753 5743 5734 5724 5713 5704 5694 5684 5674 5665 5655 5645 5634 5624 5612 5600 5587 5576 5563 5551 5539 5528 5518 5511
5843 5841 5839 5836 5834 5831 5829 5825 5821 5819 5814 5810 5804 5799 5793 5787 5781 5773 5764 5755 5746 5736 5727 5716 5706 5696 5686 5676 5666 5657 5647 5636 5626 5615 5603 5590 5578 5566 5554 5542 5530 5519 5510 5502
5840 5838 5835 5832 5829 5827 5824 5820 5817 5814 5810 5804 5798 5793 5787 5781 5774 5767 5759 5750 5740 5730 5720 5710 5699 5689 5679 5669 5659 5649 5639 5629 5618 5607 5595 5583 5571 5559 5547 5535 5524 5514 5504 5497
5836 5834 5831 5829 5826 5824 5819 5815 5813 5809 5803 5798 5793 5787 5781 5775 5768 5761 5753 5743 5734 5724 5714 5703 5693 5682 5672 5662 5653 5643 5633 5622 5611 5600 5588 5577 5565 5553 5542 5532 5521 5511 5502 5495
5831 5830 5826 5825 5823 5818 5814 5811 5807 5803 5798 5793 5788 5782 5776 5770 5763 5755 5747 5737 5727 5717 5707 5697 5687 5676 5666 5656 5646 5637 5627 5616 5606 5595 5583 5572 5561 5550 5539 5529 5519 5510 5501 5495
5826 5824 5821 5818 5816 5812 5809 5805 5802 5797 5793 5788 5782 5777 5771 5764 5757 5749 5741 5731 5721 5711 5701 5691 5681 5670 5660 5650 5641 5631 5622 5612 5601 5590 5579 5569 5558 5547 5537 5528 5519 5510 5502 5496
5821 5818 5816 5813 5810 5807 5804 5800 5796 5792 5787 5782 5777 5771 5765 5759 5751 5743 5735 5725 5716 5705 5695 5685 5675 5665 5655 5646 5636 5627 5618 5608 5598 5587 5576 5566 5556 5546 5536 5527 5519 5511 5504 5498
5815 5813 5810 5808 5805 5802 5799 5795 5791 5786 5782 5777 5771 5765 5759 5752 5745 5737 5728 5719 5710 5700 5690 5680 5670 5660 5651 5641 5632 5623 5614 5605 5595 5585 5575 5564 5554 5545 5536 5527 5519 5512 5506 5500